#timestamp,LO_Frequency,Hit,StdDev 
1646492415.6,286046998.5,N
1646492435.4,286046998.9,N
1646492455.3,286046998.8,N
1646492475.1,286046998.4,N
1646492495.9,286047000.9,N
1646492515.7,286047001.1,N
1646492535.5,286047000.9,N
1646492555.4,286047000.5,N
1646492575.2,286047000.4,N
1646492595.0,286047001.9,N
1646492595.9,286047001.9,N
1646492615.8,286047001.8,N
1646492635.6,286047001.5,N
1646492655.5,286047004.4,Y
1646492675.3,286047001.7,P
1646492695.1,286047002.4,P
1646492715.9,286047001.9,N
1646492735.7,286047002.0,N
1646492755.6,286047000.0,N
1646492775.4,286046999.9,N
1646492795.2,286046998.3,N
1646492815.1,286047000.7,N
1646492816.0,286047000.7,N
1646492835.8,286047000.2,N
1646492855.6,286047000.0,N
1646492875.5,286047000.9,N
1646492895.3,286046999.8,N
1646492915.2,286047002.0,N
1646492935.9,286047000.4,N
1646492955.7,286047002.6,N
1646492975.6,286047004.4,Y
1646492995.4,286047002.1,P
1646493015.2,286047000.3,N
1646493035.1,286047001.0,N
1646493036.0,286047001.0,N
1646493055.8,286047000.0,N
1646493075.7,286047000.3,N
1646493095.5,286047000.0,N
1646493115.3,286047000.9,N
1646493135.2,286047000.2,N
1646493155.0,286046999.9,N
1646493155.9,286046999.9,N
1646493175.8,286047002.6,Y
1646493195.6,286047000.6,P
1646493215.4,286047000.8,P
1646493235.3,286047000.1,N
1646493255.1,286047001.0,Y
1646493275.9,286046998.4,P
1646493295.7,286046999.5,N
1646493315.5,286047001.0,N
1646493335.4,286047002.6,N
1646493355.2,286047000.1,N
1646493375.0,286047002.7,N
1646493375.9,286047002.7,N
1646493395.8,286047000.5,N
1646493415.6,286047000.4,N
1646493435.5,286047000.5,N
1646493455.3,286047000.2,N
1646493475.1,286047001.1,N
1646493495.9,286047002.8,N
1646493515.7,286047002.6,N
1646493535.5,286046999.8,N
1646493555.4,286046998.5,N
1646493575.2,286047001.0,N
1646493595.1,286046998.2,N
1646493596.0,286046998.2,N
1646493615.8,286047000.4,N
1646493635.6,286046999.8,N
1646493655.5,286047002.8,N
1646493675.3,286047002.1,N
1646493695.2,286047000.2,N
1646493715.9,286047000.3,N
1646493735.7,286046998.5,N
1646493755.6,286046998.6,N
1646493775.4,286047001.0,N
1646493795.2,286047001.1,N
1646493815.1,286047000.6,N
1646493816.0,286047000.6,N
1646493835.8,286046999.7,N
1646493855.7,286047000.6,N
1646493875.5,286047000.4,N
1646493895.3,286047001.2,N
1646493915.2,286047001.0,N
1646493935.0,286047001.0,N
1646493935.9,286047001.0,N
1646493955.8,286047000.5,N
1646493975.6,286047000.9,N
1646493995.4,286047000.5,N
1646494015.3,286046999.7,N
1646494035.1,286047001.3,N
1646494055.9,286047002.5,N
1646494075.7,286047002.8,N
1646494095.5,286047004.4,Y
1646494115.4,286046999.7,P
1646494135.2,286047000.2,N
1646494155.0,286047000.5,N
1646494155.9,286047000.5,N
1646494175.8,286047000.0,N
1646494195.6,286047000.2,N
1646494215.5,286047002.4,Y
1646494235.3,286047000.7,P
1646494255.1,286047000.9,P
1646494275.9,286046998.2,P
1646494295.7,286046998.1,N
1646494315.5,286046999.9,N
1646494335.4,286047001.0,N
1646494355.2,286047000.3,N
1646494375.1,286046998.1,N
1646494376.0,286046998.1,N
1646494395.8,286047000.4,N
1646494415.6,286047001.2,N
1646494435.5,286046998.4,N
1646494455.3,286046998.1,N
1646494475.2,286047000.3,N
1646494495.9,286047000.2,N
1646494515.7,286047000.4,N
1646494535.6,286046999.9,N
1646494555.4,286046999.9,N
1646494575.2,286047001.0,N
1646494595.1,286047000.9,N
1646494596.0,286047000.9,N
1646494615.8,286046999.7,N
1646494635.7,286046999.9,N
1646494655.5,286047003.9,Y
1646494675.3,286047004.2,P
1646494695.2,286047004.0,N
1646494715.0,286047000.4,N
1646494715.9,286047000.4,N
1646494735.8,286047000.6,N
1646494755.6,286047000.7,N
1646494775.4,286047001.1,N
1646494795.3,286047000.2,N
1646494815.1,286046999.9,N
1646494835.8,286047004.4,N
1646494855.7,286047001.4,N
1646494875.5,286047001.5,N
1646494895.4,286047001.6,N
1646494915.2,286047001.7,N
1646494935.0,286047004.3,N
1646494935.9,286047004.3,N
1646494955.8,286047004.0,N
1646494975.6,286047001.9,N
1646494995.4,286047003.7,N
1646495015.3,286047003.6,N
1646495035.1,286047004.4,N
1646495055.9,286047004.4,N
1646495075.7,286047001.8,N
1646495095.5,286047003.1,N
1646495115.4,286047001.7,N
1646495135.2,286047003.9,N
1646495155.0,286047004.0,N
1646495155.9,286047004.0,N
1646495175.8,286047004.3,N
1646495195.6,286047003.1,N
1646495215.5,286047007.6,Y
1646495235.3,286047001.6,P
1646495255.1,286047001.4,N
1646495275.9,286047003.7,P
1646495295.7,286047003.9,Y
1646495315.6,286046998.6,P
1646495335.4,286046998.3,N
1646495355.2,286046998.1,N
1646495375.1,286046998.6,N
1646495376.0,286046998.6,N
1646495395.8,286047001.1,N
1646495415.6,286046999.3,N
1646495435.5,286046998.4,N
1646495455.3,286046999.0,N
1646495475.2,286046999.6,N
1646495495.9,286046997.3,N
1646495515.7,286046994.9,Y
1646495535.6,286046996.5,P
1646495555.4,286046999.1,N
1646495575.2,286046997.6,N
1646495595.1,286046997.2,N
1646495596.0,286046997.2,N
1646495615.8,286046996.5,Y
1646495635.7,286047000.1,P
1646495655.5,286047002.2,N
1646495675.3,286047001.9,N
1646495695.2,286047004.1,N
1646495715.0,286047003.6,N
1646495715.9,286047003.6,N
1646495735.7,286047002.1,N
1646495755.6,286047002.3,N
1646495775.4,286047000.2,N
1646495795.3,286047001.5,N
1646495815.1,286047002.4,N
1646495816.0,286047002.4,N
1646495835.8,286047002.5,N
1646495855.7,286047001.6,N
1646495875.5,286047004.3,N
1646495895.3,286047002.2,N
1646495915.2,286047002.0,N
1646495935.0,286047002.2,N
1646495935.9,286047002.2,N
1646495955.8,286047001.6,N
1646495975.6,286047003.8,N
1646495995.4,286047001.7,N
